GW4044 Weather Reports


Display with metric or nautical units.
time (UTC)temp
F
wind
direction
speed
MPH
gust
MPH
rain 1hr
in
rain 24hr
in
rain mn
in
humidity
%
barometer
mb
20260505173004 77 175 3.0 16.0 0.00 0.00 0.00 44 1017.1
20260505171530 78 200 3.0 8.0 0.00 0.00 0.00 43 1017.2
20260505170014 77 163 5.0 11.0 0.00 0.00 0.00 44 1017.5
20260505164517 77 88 3.0 6.0 0.00 0.00 0.00 44 1017.7
20260505163020 78 351 1.0 11.0 0.00 0.00 0.00 47 1018.0
20260505161505 75 177 5.0 12.0 0.00 0.00 0.00 46 1018.1
20260505153015 74 180 5.0 10.0 0.00 0.00 0.00 53 1018.3
20260505151518 75 240 4.0 8.0 0.00 0.00 0.00 52 1018.3
20260505124523 63 209 1.0 3.0 0.00 0.00 0.00 80 1018.1
20260505123050 60 123 1.0 2.0 0.00 0.00 0.00 85 1018.1
20260505121513 58 124 0.0 2.0 0.00 0.00 0.00 87 1018.1
20260505120019 56 156 0.0 1.0 0.00 0.00 0.00 89 1018.0
20260505114524 53 156 0.0 2.0 0.00 0.00 0.00 92 1017.8
20260505113033 51 156 0.0 2.0 0.00 0.00 0.00 93 1017.6
20260505111549 50 156 0.0 2.0 0.00 0.00 0.00 93 1017.6
20260505101509 50 157 0.0 2.0 0.00 0.00 0.00 93 1017.0
20260505100012 50 157 0.0 2.0 0.00 0.00 0.00 92 1016.7
20260505094517 51 157 0.0 0.0 0.00 0.00 0.00 92 1016.8
20260505093003 51 157 0.0 2.0 0.00 0.00 0.00 92 1016.7
20260505091505 51 157 0.0 1.0 0.00 0.00 0.00 92 1016.5
20260505090010 51 157 0.0 2.0 0.00 0.00 0.00 92 1016.3
20260505084518 51 157 0.0 2.0 0.00 0.00 0.00 92 1016.2
20260505083021 51 157 0.0 2.0 0.00 0.00 0.00 91 1016.1
20260505081531 51 157 0.0 1.0 0.00 0.00 0.00 91 1016.1
20260505080012 52 157 0.0 2.0 0.00 0.00 0.00 91 1016.0
20260505074512 52 157 0.0 2.0 0.00 0.00 0.00 91 1015.9
20260505073017 52 157 0.0 2.0 0.00 0.00 0.00 90 1015.9
20260505071520 52 157 0.0 2.0 0.00 0.00 0.00 90 1015.9
20260505070005 53 157 0.0 0.0 0.00 0.00 0.00 89 1015.9
20260505064506 53 157 0.0 0.0 0.00 0.00 0.00 88 1016.0
20260505063015 54 157 0.0 0.0 0.00 0.00 0.00 88 1016.1
20260505061529 54 157 0.0 2.0 0.00 0.00 0.00 87 1016.3
20260505060027 54 157 0.0 2.0 0.00 0.00 0.00 87 1016.5
20260505054508 54 157 0.0 2.0 0.00 0.00 0.00 87 1016.7
20260505053011 54 157 0.0 2.0 0.00 0.00 0.00 86 1016.8
20260505051516 55 157 0.0 2.0 0.00 0.00 0.00 86 1017.0
20260505041519 56 157 0.0 2.0 0.00 0.00 0.00 80 1017.1
20260505040020 57 157 0.0 2.0 0.00 0.00 0.00 79 1017.1
20260505034521 57 157 0.0 2.0 0.00 0.00 0.00 77 1017.2
20260505033028 58 157 0.0 0.0 0.00 0.00 0.00 74 1017.2
20260505031526 59 157 0.0 2.0 0.00 0.00 0.00 71 1017.2
20260505030014 60 157 0.0 2.0 0.00 0.00 0.00 69 1017.2
20260505024535 61 157 0.0 2.0 0.00 0.00 0.00 66 1017.2
20260505023022 62 157 0.0 2.0 0.00 0.00 0.00 1017.1
20260505021525 63 161 0.0 3.0 0.00 0.00 0.00 62 1017.0
20260505020026 64 143 1.0 5.0 0.00 0.00 0.00 60 1017.0
20260505020022 64 152 1.0 5.0 0.00 0.00 0.00 60 1017.0
20260505014518 64 180 1.0 4.0 0.00 0.00 0.00 59 1016.9
20260505013013 65 168 3.0 7.0 0.00 0.00 0.00 57 1016.8
20260505011508 66 167 3.0 7.0 0.00 0.00 0.00 55 1016.8
20260505010010 67 179 5.0 9.0 0.00 0.00 0.00 54 1016.7
20260505004517 67 177 3.0 11.0 0.00 0.00 0.00 54 1016.5
20260505003020 68 198 5.0 9.0 0.00 0.00 0.00 54 1016.4
20260505001506 68 204 5.0 9.0 0.00 0.00 0.00 55 1016.4
20260505000022 69 167 3.0 9.0 0.00 0.00 0.00 55 1016.4
20260504234509 69 159 7.0 11.0 0.00 0.00 0.00 53 1016.1
20260504233021 70 159 6.0 11.0 0.00 0.00 0.00 51 1016.2
20260504231528 70 200 6.0 10.0 0.00 0.00 0.00 49 1016.1
20260504230006 71 182 6.0 11.0 0.00 0.00 0.00 47 1016.1
20260504224511 72 173 5.0 15.0 0.00 0.00 0.00 45 1016.0
20260504223030 72 186 9.0 14.0 0.00 0.00 0.00 44 1016.0
20260504221518 73 159 6.0 17.0 0.00 0.00 0.00 43 1015.9
20260504220027 74 163 11.0 18.0 0.00 0.00 0.00 42 1015.8
20260504214526 75 188 5.0 17.0 0.00 0.00 0.00 42 1015.5
20260504213012 76 184 7.0 19.0 0.00 0.00 0.00 41 1015.6
20260504211531 76 138 8.0 16.0 0.00 0.00 0.00 40 1015.4
20260504210022 77 200 5.0 10.0 0.00 0.00 0.00 35 1015.4
20260504204525 77 187 4.0 11.0 0.00 0.00 0.00 33 1015.3
20260504203019 77 163 4.0 11.0 0.00 0.00 0.00 34 1015.7
20260504201512 77 152 5.0 13.0 0.00 0.00 0.00 33 1015.8
20260504200021 78 146 8.0 12.0 0.00 0.00 0.00 33 1016.0
20260504194536 77 5 0.0 8.0 0.00 0.00 0.00 33 1016.1
20260504193023 78 138 3.0 9.0 0.00 0.00 0.00 34 1016.3
20260504191512 76 294 1.0 9.0 0.00 0.00 0.00 32 1016.6
20260504190016 76 313 4.0 14.0 0.00 0.00 0.00 35 1016.7
20260504184537 76 134 5.0 9.0 0.00 0.00 0.00 35 1017.0
20260504183024 76 217 4.0 12.0 0.00 0.00 0.00 35 1017.2
20260504181526 76 261 3.0 9.0 0.00 0.00 0.00 36 1017.3
20260504180019 75 117 3.0 6.0 0.00 0.00 0.00 36 1017.3
20260504174519 75 160 4.0 14.0 0.00 0.00 0.00 37 1017.5